OBJECT_NAME,OBJECT_ID,EPOCH,MEAN_MOTION,ECCENTRICITY,INCLINATION,RA_OF_ASC_NODE,ARG_OF_PERICENTER,MEAN_ANOMALY,EPHEMERIS_TYPE,CLASSIFICATION_TYPE,NORAD_CAT_ID,ELEMENT_SET_NO,REV_AT_EPOCH,BSTAR,MEAN_MOTION_DOT,MEAN_MOTION_DDOT NIMIQ 2,2002-062A,2026-09-11T23:42:03.487104,1.00267752,.00056051,9.6425,55.9501,112.5035,68.8471,0,U,27632,999,4505,0,-.8E-6,0 ANIK F2,2004-027A,2026-09-12T04:49:26.510592,1.00272063,.0003043,3.5067,78.2890,80.2304,153.9489,0,U,28378,999,4213,0,-.63E-6,0 ANIK F1R,2005-036A,2026-09-12T03:07:51.252384,1.00272129,.00028526,4.5299,75.4505,55.7698,159.5863,0,U,28868,999,4732,0,-.88E-6,0 ANIK F3,2007-009A,2026-09-12T06:29:54.377664,1.00272397,.00025894,1.4169,82.6721,87.3498,160.0264,0,U,31102,999,4743,0,-.15E-6,0 NIMIQ 4,2008-044A,2026-09-12T06:40:23.372256,1.00271914,.00019507,0.0201,122.6288,42.6558,204.1282,0,U,33373,999,6585,0,-.235E-5,0 TELSTAR 11N,2009-009A,2026-09-12T06:52:59.664288,1.00272700,.0002451,0.0351,260.2004,266.0396,250.7554,0,U,34111,999,4711,0,-.265E-5,0 TERRESTAR-1,2009-035A,2026-09-12T01:24:08.697600,1.00273599,.0002427,5.2229,48.6676,104.7058,107.7541,0,U,35496,999,6300,0,-.69E-6,0 NIMIQ 5,2009-050A,2026-09-12T03:17:42.807264,1.00270550,.00026503,0.0332,257.8035,274.2219,155.8486,0,U,35873,999,6221,0,-.272E-5,0 SKYTERRA 1,2010-061A,2026-09-11T23:44:18.271968,1.00271927,.00007331,5.3076,50.6525,131.0162,64.1305,0,U,37218,999,5806,0,-.131E-5,0 NIMIQ 6,2012-026A,2026-09-12T06:37:46.124256,1.00272477,.00027904,0.0393,281.0020,251.0341,187.5924,0,U,38342,999,5129,0,-.188E-5,0 ANIK G1,2013-014A,2026-09-12T06:19:38.851968,1.00271993,.00027343,0.0297,254.0436,292.1957,152.6450,0,U,39127,999,4912,0,-.89E-6,0 TELSTAR 12V,2015-068A,2026-09-12T06:59:29.042304,1.00271936,.00020925,0.0212,133.9287,36.5038,270.7398,0,U,41036,999,3949,0,-.133E-5,0 VIASAT-2,2017-029A,2026-09-11T23:53:09.922272,1.00271054,.00005917,0.0211,240.3001,262.7443,136.3102,0,U,42740,999,3406,0,-.281E-5,0 LEO 1 (LEO VANTAGE 1),2018-004C,2026-09-12T05:11:18.158496,14.68260364,.03486488,99.2409,184.9031,172.0279,188.6671,0,U,43113,999,45025,.99857208E-4,.1375E-4,0 TELSTAR 19V,2018-059A,2026-09-12T03:20:27.544416,1.00270737,.0002628,0.0100,168.8143,5.2319,164.2085,0,U,43562,999,3001,0,-.295E-5,0 TELSTAR 18V,2018-069A,2026-09-12T06:00:27.203040,1.00271884,.00017835,0.0244,250.6212,283.1481,45.6184,0,U,43611,999,2951,0,-.308E-5,0 AMOS-17,2019-050A,2026-09-12T05:25:53.018112,1.00275465,.00016894,0.0325,13.4122,164.7530,271.5808,0,U,44479,999,2605,0,.95E-6,0